When you browse on this site, cookies collect data to enhance your experience and personalize the content and advertising you see.
Visit our Privacy Policy to learn more. By continuing to use the site, you agree to this use of cookies and data.
  • In Hungary
  • List of Countries
  • For 7 days
  • Water Temperature
  • Weather Map
  • News
  • Weather Widgets
  • user-avatar
    Login

    Hourly Weather Trebovlya

    Today, 1 April, Wednesday

    Time Temperature Precipitation Wind Pressure Humidity
    00:00 0°C° 0 mm 1 mps 733 mmHg 52%
    01:00 0°C° 0 mm 1 mps 733 mmHg 53%
    02:00 -1°C° 0 mm 1 mps 733 mmHg 55%
    03:00 -3°C° 0 mm 2 mps 733 mmHg 56%
    04:00 -3°C° 0 mm 2 mps 732 mmHg 56%
    05:00 -3°C° 0 mm 2 mps 732 mmHg 57%
    06:00 -2°C° 0 mm 2 mps 732 mmHg 55%
    07:00 -2°C° 0 mm 3 mps 732 mmHg 54%
    08:00 -1°C° 0 mm 3 mps 733 mmHg 52%
    09:00 0°C° 0 mm 3 mps 732 mmHg 48%
    10:00 +1°C° 0 mm 4 mps 732 mmHg 45%
    11:00 +3°C° 0 mm 4 mps 732 mmHg 41%
    12:00 +3°C° 0 mm 4 mps 731 mmHg 41%
    13:00 +4°C° 0 mm 4 mps 731 mmHg 40%
    14:00 +4°C° 0 mm 4 mps 731 mmHg 39%
    15:00 +4°C° 0 mm 4 mps 730 mmHg 40%
    16:00 +4°C° 0 mm 4 mps 729 mmHg 40%
    17:00 +4°C° 0 mm 3 mps 729 mmHg 41%
    18:00 +4°C° 0 mm 2 mps 729 mmHg 46%
    19:00 +3°C° 0 mm 2 mps 729 mmHg 51%
    20:00 +2°C° 0 mm 1 mps 729 mmHg 56%
    21:00 +2°C° 0 mm 1 mps 729 mmHg 57%
    22:00 +2°C° 0 mm 1 mps 729 mmHg 58%
    23:00 -1°C° 0 mm 2 mps 728 mmHg 58%

    Tomorrow, 2 April, Thursday

    Time Temperature Precipitation Wind Pressure Humidity
    00:00 -1°C° 0 mm 2 mps 728 mmHg 59%
    01:00 -1°C° 0 mm 2 mps 728 mmHg 60%
    02:00 -2°C° 0 mm 2 mps 728 mmHg 60%
    03:00 -2°C° 0 mm 2 mps 728 mmHg 59%
    04:00 -2°C° 0 mm 2 mps 727 mmHg 58%
    05:00 -2°C° 0 mm 2 mps 727 mmHg 57%
    06:00 -1°C° 0 mm 2 mps 727 mmHg 53%
    07:00 0°C° 0 mm 3 mps 727 mmHg 49%
    08:00 +1°C° 0 mm 3 mps 727 mmHg 45%
    09:00 +3°C° 0 mm 3 mps 727 mmHg 42%
    10:00 +4°C° 0 mm 3 mps 727 mmHg 39%
    11:00 +6°C° 0 mm 4 mps 727 mmHg 36%
    12:00 +6°C° 0 mm 4 mps 727 mmHg 36%
    13:00 +7°C° 0 mm 4 mps 727 mmHg 35%
    14:00 +9°C° 0 mm 3 mps 727 mmHg 35%
    15:00 +9°C° 0 mm 3 mps 726 mmHg 36%
    16:00 +9°C° 0 mm 3 mps 725 mmHg 37%
    17:00 +9°C° 0 mm 3 mps 725 mmHg 37%
    18:00 +7°C° 0 mm 2 mps 725 mmHg 43%
    19:00 +6°C° 0 mm 2 mps 725 mmHg 49%
    20:00 +5°C° 0 mm 1 mps 725 mmHg 54%
    21:00 +5°C° 0 mm 1 mps 725 mmHg 56%
    22:00 +4°C° 0 mm 1 mps 725 mmHg 57%
    23:00 +3°C° 0 mm 1 mps 725 mmHg 59%

    Day after tomorrow, 3 April, Friday

    Time Temperature Precipitation Wind Pressure Humidity
    00:00 +3°C° 0 mm 1 mps 725 mmHg 61%
    01:00 +2°C° 0 mm 1 mps 724 mmHg 62%
    02:00 +2°C° 0 mm 1 mps 724 mmHg 64%
    03:00 +2°C° 0 mm 1 mps 724 mmHg 64%
    04:00 +2°C° 0 mm 1 mps 724 mmHg 64%
    05:00 +1°C° 0 mm 1 mps 724 mmHg 63%
    06:00 +1°C° 0 mm 2 mps 724 mmHg 59%
    07:00 +3°C° 0 mm 2 mps 724 mmHg 55%
    08:00 +3°C° 0 mm 3 mps 724 mmHg 50%
    09:00 +4°C° 0 mm 3 mps 724 mmHg 47%
    10:00 +6°C° 0 mm 4 mps 724 mmHg 44%
    11:00 +7°C° 0 mm 4 mps 724 mmHg 40%
    12:00 +8°C° 0 mm 4 mps 724 mmHg 40%
    13:00 +9°C° 0 mm 5 mps 725 mmHg 40%
    14:00 +10°C° 0 mm 5 mps 725 mmHg 40%
    15:00 +10°C° 0 mm 5 mps 725 mmHg 42%
    16:00 +10°C° 0 mm 5 mps 725 mmHg 44%
    17:00 +10°C° 0 mm 5 mps 725 mmHg 46%
    18:00 +8°C° 0 mm 4 mps 725 mmHg 52%
    19:00 +7°C° 0 mm 4 mps 726 mmHg 58%
    20:00 +5°C° 0 mm 3 mps 726 mmHg 65%
    21:00 +5°C° 0 mm 3 mps 726 mmHg 69%
    22:00 +4°C° 0 mm 3 mps 727 mmHg 73%
    23:00 +3°C° 0 mm 3 mps 727 mmHg 78%

    4 April, Saturday

    Time Temperature Precipitation Wind Pressure Humidity
    00:00 +3°C° 0 mm 3 mps 728 mmHg 81%
    01:00 +4°C° 0 mm 2 mps 728 mmHg 85%
    02:00 +4°C° 0 mm 2 mps 728 mmHg 88%
    03:00 +3°C° 0 mm 2 mps 729 mmHg 89%
    04:00 +3°C° 0 mm 2 mps 729 mmHg 89%
    05:00 +3°C° 0 mm 2 mps 729 mmHg 89%
    06:00 +4°C° 0 mm 2 mps 730 mmHg 85%
    07:00 +5°C° 0 mm 2 mps 731 mmHg 82%
    08:00 +5°C° 0 mm 2 mps 731 mmHg 78%
    09:00 +6°C° 0 mm 2 mps 731 mmHg 71%
    10:00 +7°C° 0 mm 3 mps 732 mmHg 64%
    11:00 +9°C° 0 mm 3 mps 732 mmHg 57%
    12:00 +9°C° 0.1 mm 3 mps 732 mmHg 55%
    13:00 +9°C° 0.1 mm 3 mps 732 mmHg 53%
    14:00 +10°C° 0.1 mm 3 mps 733 mmHg 51%
    15:00 +10°C° 0 mm 3 mps 733 mmHg 52%
    16:00 +9°C° 0 mm 3 mps 733 mmHg 52%
    17:00 +9°C° 0 mm 3 mps 733 mmHg 52%
    18:00 +8°C° 0 mm 3 mps 733 mmHg 57%
    19:00 +7°C° 0 mm 2 mps 734 mmHg 62%
    20:00 +6°C° 0 mm 2 mps 735 mmHg 68%
    21:00 +5°C° 0 mm 2 mps 735 mmHg 69%
    22:00 +6°C° 0 mm 1 mps 736 mmHg 70%
    23:00 +5°C° 0 mm 1 mps 736 mmHg 71%

    5 April, Sunday

    Time Temperature Precipitation Wind Pressure Humidity
    00:00 +5°C° 0 mm 1 mps 737 mmHg 72%
    01:00 +4°C° 0 mm 1 mps 737 mmHg 73%
    02:00 +4°C° 0 mm 1 mps 737 mmHg 74%
    03:00 +4°C° 0 mm 1 mps 737 mmHg 76%
    04:00 +2°C° 0 mm 2 mps 738 mmHg 78%
    05:00 +2°C° 0 mm 2 mps 738 mmHg 80%
    06:00 +3°C° 0 mm 2 mps 739 mmHg 77%
    07:00 +2°C° 0 mm 3 mps 739 mmHg 74%
    08:00 +3°C° 0 mm 3 mps 740 mmHg 71%
    09:00 +4°C° 0 mm 4 mps 740 mmHg 65%
    10:00 +6°C° 0 mm 4 mps 740 mmHg 59%
    11:00 +7°C° 0 mm 4 mps 740 mmHg 53%
    12:00 +8°C° 0 mm 4 mps 740 mmHg 49%
    13:00 +8°C° 0 mm 4 mps 740 mmHg 45%
    14:00 +10°C° 0 mm 4 mps 740 mmHg 41%
    15:00 +8°C° 0 mm 4 mps 740 mmHg 40%
    16:00 +8°C° 0 mm 4 mps 740 mmHg 39%
    17:00 +8°C° 0 mm 4 mps 740 mmHg 38%
    18:00 +7°C° 0 mm 4 mps 740 mmHg 41%
    19:00 +5°C° 0 mm 4 mps 741 mmHg 45%
    20:00 +4°C° 0 mm 4 mps 741 mmHg 48%
    21:00 +3°C° 0 mm 4 mps 741 mmHg 50%
    22:00 +3°C° 0 mm 4 mps 742 mmHg 52%
    23:00 +1°C° 0 mm 4 mps 742 mmHg 54%

    6 April, Monday

    Time Temperature Precipitation Wind Pressure Humidity
    00:00 +1°C° 0 mm 4 mps 742 mmHg 53%
    01:00 0°C° 0 mm 4 mps 743 mmHg 53%
    02:00 -1°C° 0 mm 4 mps 743 mmHg 52%
    03:00 -1°C° 0 mm 4 mps 743 mmHg 53%
    04:00 -1°C° 0 mm 4 mps 743 mmHg 54%
    05:00 -2°C° 0 mm 4 mps 743 mmHg 54%
    06:00 -1°C° 0 mm 5 mps 743 mmHg 51%
    07:00 -1°C° 0 mm 6 mps 744 mmHg 48%
    08:00 +1°C° 0 mm 6 mps 744 mmHg 45%
    09:00 +2°C° 0 mm 6 mps 744 mmHg 43%
    10:00 +3°C° 0 mm 6 mps 744 mmHg 41%
    11:00 +5°C° 0 mm 6 mps 744 mmHg 38%
    12:00 +7°C° 0 mm 6 mps 744 mmHg 38%
    13:00 +7°C° 0 mm 6 mps 744 mmHg 37%
    14:00 +8°C° 0 mm 6 mps 743 mmHg 36%
    15:00 +8°C° 0 mm 6 mps 743 mmHg 36%
    16:00 +8°C° 0 mm 6 mps 743 mmHg 37%
    17:00 +8°C° 0 mm 6 mps 743 mmHg 37%
    18:00 +7°C° 0 mm 5 mps 743 mmHg 41%
    19:00 +6°C° 0 mm 5 mps 743 mmHg 44%
    20:00 +4°C° 0 mm 4 mps 743 mmHg 47%
    21:00 +3°C° 0 mm 5 mps 743 mmHg 47%
    22:00 +3°C° 0 mm 5 mps 743 mmHg 47%
    23:00 +2°C° 0 mm 5 mps 743 mmHg 47%
    Show more